Regional Weather Roundup
Issued by NWS

Home | Current Version | Previous Version | Text Only | Print | Product List | Glossary Off
Versions: 1 2 3 4 5 6 7 8 9 10 11 12 13 14 15 16 17 18 19 20 21 22 23 24 25 26 27 28 29 30 31 32 33 34 35 36 37 38 39 40 41 42 43 44 45 46 47 48 49 50

462
ASUS44 KLIX 241501
RWRLA
LOUISIANA WEATHER ROUNDUP
NATIONAL WEATHER SERVICE NEW ORLEANS LA
1000 AM CDT THU APR 24 2014

NOTE: "FAIR" INDICATES FEW OR NO CLOUDS BELOW 12,000 FEET WITH NO
      SIGNIFICANT WEATHER AND/OR OBSTRUCTIONS TO VISIBILITY.
      SKY/WX - SKY CONDITION AND SIGNIFICANT WEATHER.
      TMP - AIR TEMPERATURE.    DP   - DEWPOINT TEMPERATURE.
      RH  - RELATIVE HUMIDITY.  PRES - PRESSURE.
      HX  - HEAT INDEX.         WCI  - WIND CHILL INDEX.

*  THESE STATIONS ARE NOT NWS OR FAA STATIONS AND ARE NOT UNDER
   NWS QUALITY CONTROL.

LAZ040-048-061>063-065-066-069-241600-
SOUTHEAST LOUISIANA

CITY           SKY/WX    TMP DP  RH WIND       PRES   REMARKS
N.O. AUDUBON     N/A     78  64  61 MISG        N/A
N.O. INTL ARPT MOSUNNY   74  66  76 S8        29.99R
N.O. LAKEFRONT MOSUNNY   75  64  68 SE10      30.00R
N.O. DOWNTOWN* FAIR      75  61  60 S6        30.00R
SLIDELL        MOSUNNY   74  63  68 S7        29.99R
BATON ROUGE    PTSUNNY   71  65  81 CALM      29.98R HAZE
BOOTHVILLE     MOSUNNY   72  66  81 S5        30.01R
BELLE CHASSE   PTSUNNY   76  63  64 SE5       29.99R
BOGALUSA*        N/A     74  65  73 W3        30.01R
GALLIANO*      NOT AVBL
NEW ROADS*     NOT AVBL
GONZALES*      FAIR      71  67  88 S5        29.98S
HAMMOND*       NOT AVBL
HOUMA*         PTSUNNY   75  64  69 S7        29.99R
PORT FOURCHON* MOSUNNY   73  66  78 VRB6G12   30.00R

$$

LAZ041-044-053-054-241600-
SOUTHWEST LOUISIANA

CITY           SKY/WX    TMP DP  RH WIND       PRES   REMARKS
LAKE CHARLES   CLOUDY    75  65  70 S10       29.94R
LAFAYETTE      PTSUNNY   75  67  76 S8        29.97R
PATTERSON      CLOUDY    73  68  83 SW8       30.01R
SALT POINT     NOT AVBL
NEW IBERIA     PTSUNNY   77  67  71 S10       29.98R
CHENAULT AIRPK PTSUNNY   75  64  69 S13       29.94S

$$

LAZ027-028-241600-
CENTRAL LOUISIANA

CITY           SKY/WX    TMP DP  RH WIND       PRES   REMARKS
FORT POLK      CLOUDY    72  65  78 S12G20    29.92F
ALEXANDRIA INT PTSUNNY   73  65  75 S10G18    29.91F
ALEXANDRIA     PTSUNNY   75  65  70 S9        29.93S

$$

LAZ001-002-241600-
NORTHWEST LOUISIANA

CITY           SKY/WX    TMP DP  RH WIND       PRES   REMARKS
SHREVEPORT     PTSUNNY   72  63  73 S15G22    29.87R
BARKSDALE AFB  NOT AVBL
DTN SHREVEPORT CLOUDY    70  63  78 S13       29.88R

$$

LAZ014-016-241600-
NORTHEAST LOUISIANA

CITY           SKY/WX    TMP DP  RH WIND       PRES   REMARKS
MONROE         MOSUNNY   72  63  73 SW7       29.92S
TALLULAH       SUNNY     74  63  68 S9        29.93F

$$




USA.gov is the U.S. government's official web portal to all federal, state and local government web resources and services.